Terminal Aerodrome Forecast
Issued by NWS Duluth, MN

Home | Current Version | Previous Version | Text Only | Print | Product List | Glossary On
Versions: 1 2 3 4 5 6 7 8 9 10 11 12 13 14 15 16 17 18 19 20 21 22 23 24 25
000
FTUS43 KDLH 251741
TAFDLH
TAF
KDLH 251741Z 2518/2618 15009KT P6SM SCT025 BKN050
      TEMPO 2519/2523 BKN025 BKN050
     FM252300 16005KT P6SM VCTS BKN035CB OVC060
     FM260500 23005KT P6SM VCSH BKN035 OVC050
     FM260800 29006KT 4SM BR BKN018
     FM261300 31006KT P6SM SCT080=

USA.gov is the U.S. government's official web portal to all federal, state and local government web resources and services.